Weather History for KMVY - January, 2013

Change the Weather History Date:

Sunday, January 6, 2013

  Actual Average Record
Temperature  
Mean Temperature 34 °F -  
Max Temperature 43 °F 37 °F 59 °F (1950)
Min Temperature 24 °F 22 °F 1 °F (1999)
Degree Days  
Heating Degree Days 32    
Moisture  
Dew Point 30 °F    
Average Humidity 90    
Maximum Humidity 100    
Minimum Humidity 74    
Precipitation  
Precipitation 0.02 in - - ()
Sea Level Pressure  
Sea Level Pressure 30.05 in    
Wind  
Wind Speed 3 mph (WSW)    
Max Wind Speed 14 mph    
Max Gust Speed 24 mph    
Visibility 8 miles    
Events Rain    
Averages and records for this station are not official NWS values.
T = Trace of Precipitation, MM = Missing Value Source: NWS Daily Summary

Daily Weather History Graph

Daily Weather History Graph

Search for Another Location

Airport or City:

Trip Planner

Search our weather history database for the weather conditions in past years. The results will help you decide how hot, cold, wet, or windy it might be!

Date:

Astronomy

Jan. 06, 2013 Rise Set
Actual Time 7:08 AM EST 4:28 PM EST
Civil Twilight 6:37 AM EST 4:59 PM EST
Nautical Twilight 6:03 AM EST 5:34 PM EST
Astronomical Twilight 5:29 AM EST 6:07 PM EST
Moon 1:17 AM EST (1/6) 11:55 AM EST (1/6)
Length of Visible Light 10h 21m
Length of Day
9h 19m
Waning Crescent, 33% of the Moon is Illuminated
Jan 6
Waning Crescent
Jan 11
New
Jan 18
First Quarter
Jan 26
Full
Feb 3
Last Quarter

Hourly Weather History & Observations

Time (EST) Temp. Windchill Dew Point Humidity Pressure Visibility Wind Dir Wind Speed Gust Speed Precip Events Conditions
12:53 AM 25.0 °F - 21.0 °F 85% 30.19 in 10.0 mi Calm Calm - N/A   Clear
1:53 AM 26.1 °F - 23.0 °F 88% 30.22 in 10.0 mi Calm Calm - N/A   Mostly Cloudy
2:53 AM 28.9 °F - 26.1 °F 89% 30.20 in 10.0 mi Calm Calm - N/A   Overcast
3:53 AM 30.0 °F - 26.1 °F 85% 30.17 in 10.0 mi Calm Calm - N/A   Overcast
4:53 AM 30.0 °F - 28.0 °F 92% 30.14 in 10.0 mi Calm Calm - N/A   Overcast
5:53 AM 32.0 °F - 28.9 °F 88% 30.12 in 10.0 mi Calm Calm - 0.00 in   Overcast
6:09 AM 32.0 °F - 28.4 °F 87% 30.11 in 10.0 mi Calm Calm - 0.00 in   Overcast
6:30 AM 33.8 °F 29.6 °F 30.2 °F 87% 30.12 in 10.0 mi WSW 4.6 mph - 0.01 in Rain Light Rain
6:53 AM 34.0 °F 28.8 °F 32.0 °F 92% 30.12 in 10.0 mi SW 5.8 mph - 0.01 in Rain Light Rain
7:21 AM 35.6 °F 30.7 °F 33.8 °F 93% 30.11 in 8.0 mi WSW 5.8 mph - 0.01 in Rain Light Rain
7:29 AM 35.6 °F 30.7 °F 33.8 °F 93% 30.10 in 7.0 mi WSW 5.8 mph - 0.01 in Rain Light Rain
7:53 AM 35.1 °F 29.3 °F 33.1 °F 92% 30.11 in 7.0 mi WSW 6.9 mph - 0.01 in   Overcast
8:45 AM 35.6 °F 30.7 °F 33.8 °F 93% 30.10 in 8.0 mi SW 5.8 mph - N/A   Overcast
8:53 AM 37.0 °F 31.6 °F 35.1 °F 93% 30.10 in 8.0 mi WSW 6.9 mph - N/A   Overcast
9:53 AM 39.0 °F 33.4 °F 34.0 °F 82% 30.10 in 10.0 mi West 8.1 mph - N/A   Overcast
10:27 AM 39.2 °F 33.0 °F 35.6 °F 87% 30.08 in 10.0 mi WSW 9.2 mph - N/A   Overcast
10:53 AM 39.9 °F 33.9 °F 35.1 °F 83% 30.06 in 10.0 mi WSW 9.2 mph 19.6 mph N/A   Overcast
11:53 AM 39.9 °F 33.4 °F 35.1 °F 83% 30.02 in 10.0 mi WSW 10.4 mph 16.1 mph N/A   Overcast
12:53 PM 41.0 °F 33.9 °F 36.0 °F 82% 29.99 in 10.0 mi West 12.7 mph 17.3 mph N/A   Overcast
1:53 PM 43.0 °F 36.0 °F 35.1 °F 74% 29.98 in 10.0 mi West 13.8 mph 24.2 mph N/A   Mostly Cloudy
2:53 PM 42.1 °F 37.1 °F 36.0 °F 79% 29.97 in 10.0 mi West 8.1 mph - N/A   Mostly Cloudy
3:02 PM 42.8 °F 37.5 °F 35.6 °F 76% 29.97 in 10.0 mi West 9.2 mph - N/A   Scattered Clouds
3:53 PM 41.0 °F 35.8 °F 35.1 °F 79% 29.96 in 10.0 mi West 8.1 mph - N/A   Clear
4:53 PM 37.0 °F 32.4 °F 35.1 °F 93% 29.96 in 10.0 mi WSW 5.8 mph - N/A   Clear
5:53 PM 36.0 °F 33.3 °F 34.0 °F 93% 29.98 in 10.0 mi WNW 3.5 mph - N/A   Clear
6:53 PM 30.0 °F - 28.9 °F 96% 29.97 in 7.0 mi Calm Calm - N/A   Clear
7:53 PM 33.1 °F 28.7 °F 32.0 °F 96% 29.99 in 10.0 mi West 4.6 mph - N/A   Clear
8:53 PM 32.0 °F 28.7 °F 30.9 °F 96% 29.99 in 10.0 mi WNW 3.5 mph - N/A   Clear
9:53 PM 30.0 °F 26.5 °F 30.0 °F 100% 29.99 in 9.0 mi West 3.5 mph - N/A   Clear
10:43 PM 26.6 °F 22.6 °F 24.8 °F 93% 29.99 in 2.0 mi SW 3.5 mph - N/A   Clear
10:53 PM 26.1 °F - 25.0 °F 96% 29.99 in 2.5 mi Calm Calm - N/A   Clear
11:13 PM 24.8 °F - 24.8 °F 100% 29.98 in 1.5 mi Calm Calm - N/A   Scattered Clouds
11:23 PM 24.8 °F - 24.8 °F 100% 29.98 in 2.5 mi Calm Calm - N/A   Mostly Cloudy
11:41 PM 24.8 °F - 24.8 °F 100% 29.97 in 1.0 mi Calm Calm - N/A   Scattered Clouds
11:50 PM 26.6 °F - 24.8 °F 93% 29.97 in 0.8 mi Calm Calm - N/A   Partly Cloudy
11:53 PM 26.1 °F - 24.1 °F 92% 29.97 in 0.8 mi Calm Calm - N/A   Partly Cloudy